Location: San Vito
(41.8833°N, 12.9833°E)
Time: 23:28:33
(UTC+00:00)

Gbstr 26 Del rocket - Pass Details

Date: 17 November 2019
Orbit: 493 x 1264 km, 51.8° (Epoch: 14 December)

Event Time Altitude Azimuth Distance (km) Brightness Sun altitude
Exits shadow 04:09:02 37° 351° (N) 800 3.4 -20.5°
Drops below altitude 10° 04:12:08 10° 44° (NE) 1,690 5.8 -19.9°
Sets 04:14:23 0° 53° (NE) 2,581 6.9 -19.5°
